This is the latest recevied weather packets stored in our database for station/object W1LBM. If no packets are shown the sender has not sent any weather packets the latest 1 day(s).
| Time | Temp. | Humidity | Pressure | Rain* | Wind** | Luminosity | Snow |
|---|---|---|---|---|---|---|---|
| 1778033881 | 17.22° C | 67% | 1014.4 hPa | 0 mm | 0 m/s | 0 W/m² | - |
| 1778033578 | 17.22° C | 67% | 1014.3 hPa | 0 mm | 0.45 m/s, 178° | 0 W/m² | - |
| 1778033274 | 17.22° C | 66% | 1014.3 hPa | 0 mm | 1.34 m/s, 152° | 0 W/m² | - |
| 1778032972 | 17.22° C | 66% | 1014.3 hPa | 0 mm | 0.45 m/s, 152° | 0 W/m² | - |
| 1778032669 | 17.22° C | 67% | 1014.2 hPa | 0 mm | 1.79 m/s, 190° | 0 W/m² | - |
| 1778032373 | 17.22° C | 67% | 1014.3 hPa | 0 mm | 0.45 m/s, 168° | 0 W/m² | - |
| 1778032063 | 17.22° C | 67% | 1014.4 hPa | 0 mm | 0.45 m/s, 169° | 0 W/m² | - |
| 1778031760 | 16.67° C | 68% | 1014.3 hPa | 0 mm | 0.45 m/s, 134° | 0 W/m² | - |
| 1778031457 | 16.67° C | 68% | 1014.3 hPa | 0 mm | 1.34 m/s, 123° | 0 W/m² | - |
| 1778031155 | 16.67° C | 68% | 1014.2 hPa | 0 mm | 0.45 m/s, 165° | 0 W/m² | - |
| 1778030851 | 16.67° C | 67% | 1014.2 hPa | 0 mm | 1.79 m/s, 190° | 0 W/m² | - |
| 1778030548 | 16.67° C | 67% | 1014.1 hPa | 0 mm | 1.34 m/s, 180° | 0 W/m² | - |
| 1778030245 | 17.22° C | 66% | 1014.1 hPa | 0 mm | 0.45 m/s, 121° | 0 W/m² | - |
| 1778029941 | 16.67° C | 66% | 1014.1 hPa | 0 mm | 1.34 m/s, 170° | 0 W/m² | - |
| 1778029640 | 16.67° C | 66% | 1014.1 hPa | 0 mm | 1.34 m/s, 182° | 0 W/m² | - |
| 1778029337 | 16.67° C | 66% | 1014.1 hPa | 0 mm | 1.34 m/s, 195° | 0 W/m² | - |
| 1778029034 | 16.67° C | 67% | 1013.9 hPa | 0 mm | 0.45 m/s, 150° | 0 W/m² | - |
| 1778028730 | 16.67° C | 67% | 1014.1 hPa | 0 mm | 1.34 m/s, 164° | 0 W/m² | - |
| 1778028426 | 16.67° C | 67% | 1014 hPa | 0 mm | 0.45 m/s, 143° | 0 W/m² | - |
| 1778028124 | 16.67° C | 67% | 1013.8 hPa | 0 mm | 0.89 m/s, 180° | 0 W/m² | - |
| 1778027820 | 16.67° C | 67% | 1013.8 hPa | 0 mm | 1.79 m/s, 231° | 0 W/m² | - |
| 1778027517 | 16.67° C | 68% | 1013.8 hPa | 0 mm | 1.79 m/s, 169° | 0 W/m² | - |
| 1778027212 | 16.67° C | 67% | 1013.7 hPa | 0 mm | 0.89 m/s, 140° | 0 W/m² | - |
| 1778026909 | 16.67° C | 67% | 1013.7 hPa | 0 mm | 0.45 m/s, 165° | 0 W/m² | - |
| 1778026604 | 16.67° C | 67% | 1013.5 hPa | 0 mm | 1.34 m/s, 176° | 0 W/m² | - |
* Rain latest hour (hover to see other rain measurements)
** Current wind speed in m/s (hover to see current wind gust speed)